This is the latest recevied weather packets stored in our database for station/object NE8U. If no packets are shown the sender has not sent any weather packets the latest 10 day(s).
| Time | Temp. | Humidity | Pressure | Rain* | Wind** | Luminosity | Snow |
|---|---|---|---|---|---|---|---|
| 1778049615 | 15.56° C | 47% | 1015.8 hPa | 0 mm | - | 0 W/m² | - |
| 1778049313 | 16.11° C | 47% | 1015.8 hPa | 0 mm | - | 0 W/m² | - |
| 1778049010 | 16.11° C | 46% | 1015.9 hPa | 0 mm | - | 0 W/m² | - |
| 1778048709 | 16.11° C | 46% | 1015.6 hPa | 0 mm | - | 0 W/m² | - |
| 1778048405 | 16.11° C | 45% | 1015.8 hPa | 0 mm | - | 0 W/m² | - |
| 1778048101 | 16.11° C | 46% | 1015.7 hPa | 0 mm | - | 0 W/m² | - |
| 1778047799 | 16.11° C | 47% | 1015.8 hPa | 0 mm | - | 0 W/m² | - |
| 1778047497 | 16.11° C | 47% | 1015.8 hPa | 0 mm | - | 0 W/m² | - |
| 1778047194 | 16.67° C | 47% | 1015.9 hPa | 0 mm | - | 0 W/m² | - |
| 1778046891 | 16.67° C | 47% | 1015.8 hPa | 0 mm | - | 0 W/m² | - |
| 1778046588 | 17.22° C | 46% | 1015.8 hPa | 0 mm | - | 0 W/m² | - |
| 1778046285 | 17.22° C | 45% | 1015.8 hPa | 0 mm | - | 0 W/m² | - |
| 1778045981 | 17.22° C | 45% | 1015.8 hPa | 0 mm | - | 0 W/m² | - |
| 1778045679 | 17.22° C | 44% | 1015.6 hPa | 0 mm | - | 0 W/m² | - |
| 1778045377 | 17.78° C | 43% | 1015.6 hPa | 0 mm | - | 0 W/m² | - |
| 1778045075 | 17.78° C | 40% | 1015.7 hPa | 0 mm | - | 0 W/m² | - |
| 1778044772 | 17.22° C | 42% | 1015.6 hPa | 0 mm | - | 0 W/m² | - |
| 1778044469 | 17.22° C | 44% | 1015.6 hPa | 0 mm | - | 0 W/m² | - |
| 1778044166 | 16.67° C | 45% | 1015.4 hPa | 0 mm | - | 0 W/m² | - |
| 1778043864 | 16.67° C | 48% | 1015.5 hPa | 0 mm | - | 0 W/m² | - |
| 1778043561 | 17.22° C | 47% | 1015.3 hPa | 0 mm | - | 0 W/m² | - |
| 1778043258 | 17.22° C | 44% | 1015.3 hPa | 0 mm | - | 0 W/m² | - |
| 1778042954 | 17.78° C | 44% | 1015.3 hPa | 0 mm | - | 0 W/m² | - |
| 1778042652 | 17.78° C | 43% | 1014.9 hPa | 0 mm | - | 0 W/m² | - |
| 1778042349 | 17.78° C | 42% | 1015.1 hPa | 0 mm | - | 0 W/m² | - |
* Rain latest hour (hover to see other rain measurements)
** Current wind speed in m/s (hover to see current wind gust speed)